Weather reports worldwide

Advertisment
Larissa, Greece (16648): temperature & dewpoint: 20.03.2019 21:00:00 - 26.03.2019 21:00:00 (EET)Larissa, Greece (16648): wind speed: 20.03.2019 21:00:00 - 26.03.2019 21:00:00 (EET)Larissa, Greece (16648): wind direction: 20.03.2019 21:00:00 - 26.03.2019 21:00:00 (EET)Larissa, Greece (16648): reduced air pressure: 20.03.2019 21:00:00 - 26.03.2019 21:00:00 (EET)Larissa, Greece (16648): visibility: 20.03.2019 21:00:00 - 26.03.2019 21:00:00 (EET)
Date & Time tt [°C] td [°C] ff [km/h] ff [kn] dd ppp [hPa] vv [km]
26.03.2019 21:00:00 13,0 9,0 9 5 NNW - 10
26.03.2019 20:00:00 14,4 7,7 8 4 NNW 1014,2 10
26.03.2019 19:00:00 17,0 4,0 15 8 NE - 10
26.03.2019 18:00:00 17,0 4,0 9 5 N - 10
26.03.2019 17:00:00 17,2 5,5 0 0 N 1010,7 10
26.03.2019 16:00:00 19,0 5,0 18 10 E - 10
26.03.2019 15:00:00 19,0 6,0 16 9 ESE - 10
26.03.2019 14:00:00 18,6 6,9 15 8 ESE 1010,3 10
26.03.2019 13:00:00 18,0 9,0 11 6 E - 10
26.03.2019 12:00:00 16,0 11,0 16 9 E - 10
26.03.2019 11:00:00 15,4 8,5 0 0 N 1010,7 10
26.03.2019 10:00:00 13,0 9,0 0 0 N - 10
26.03.2019 09:00:00 12,0 8,0 0 0 N - 10
26.03.2019 08:00:00 8,2 6,2 0 0 N 1010,4 10
26.03.2019 07:00:00 7,0 5,0 0 0 N - 10
26.03.2019 06:00:00 7,0 5,0 0 0 N - 10
26.03.2019 05:00:00 5,4 4,4 0 0 N 1009,5 10
26.03.2019 04:00:00 7,0 5,0 0 0 N - 10
26.03.2019 03:00:00 5,0 4,0 0 0 N - 10
26.03.2019 02:00:00 7,0 5,6 0 0 N 1009,4 10
26.03.2019 01:00:00 7,0 6,0 0 0 N - 10
26.03.2019 00:00:00 8,0 6,0 8 4 E - 10
25.03.2019 23:00:00 9,8 5,8 8 4 E 1009,6 10
25.03.2019 22:00:00 10,0 7,0 9 5 ENE - 10
25.03.2019 21:00:00 11,0 7,0 11 6 E - 10
25.03.2019 20:00:00 11,2 7,3 15 8 E 1009,5 10
25.03.2019 19:00:00 13,0 8,0 13 7 E - 10
25.03.2019 18:00:00 17,0 8,0 11 6 E - 10
25.03.2019 17:00:00 19,2 8,3 0 0 N 1009,6 10
25.03.2019 16:00:00 21,0 7,0 0 0 N - 10
25.03.2019 15:00:00 20,0 7,0 0 0 N - 10
25.03.2019 14:00:00 19,6 6,0 0 0 N 1012,4 10
25.03.2019 13:00:00 19,0 6,0 0 0 N - 10
25.03.2019 12:00:00 17,0 5,0 0 0 N - 10
25.03.2019 11:00:00 14,8 4,8 0 0 N 1016,2 10
25.03.2019 10:00:00 13,0 6,0 0 0 N - 10
25.03.2019 09:00:00 11,0 6,0 0 0 N - 10
25.03.2019 08:00:00 5,0 3,3 0 0 N 1017,8 10
25.03.2019 07:00:00 3,0 2,0 0 0 N - 10
25.03.2019 06:00:00 4,0 3,0 0 0 N - 10
25.03.2019 05:00:00 3,2 2,4 8 4 SSW 1018,1 10
25.03.2019 04:00:00 5,0 4,0 0 0 N - 10
25.03.2019 03:00:00 6,0 3,0 0 0 N - 10
25.03.2019 02:00:00 7,2 5,1 0 0 N 1019,1 10
25.03.2019 01:00:00 7,0 5,0 0 0 N - 10
25.03.2019 00:00:00 8,0 5,0 0 0 N - 10
24.03.2019 23:00:00 8,0 4,8 0 0 N 1019,2 10
24.03.2019 22:00:00 9,0 5,0 0 0 N - 10
24.03.2019 21:00:00 8,0 4,0 11 6 ESE - 10
24.03.2019 20:00:00 11,4 5,4 8 4 E 1018,9 10
24.03.2019 19:00:00 14,0 6,0 0 0 N - 10
24.03.2019 18:00:00 17,0 6,0 0 0 N - 10
24.03.2019 17:00:00 18,4 5,4 0 0 N 1018,8 10
24.03.2019 16:00:00 19,0 6,0 0 0 N - 10
24.03.2019 15:00:00 18,0 7,0 0 0 N - 10
24.03.2019 14:00:00 18,6 6,6 0 0 N 1020,6 10
24.03.2019 13:00:00 17,0 7,0 0 0 N - 10
24.03.2019 12:00:00 16,0 6,0 0 0 N - 10
24.03.2019 11:00:00 15,2 5,7 0 0 N 1022,7 10
24.03.2019 10:00:00 14,0 7,0 11 6 E - 10
24.03.2019 09:00:00 12,0 6,0 0 0 N - 10
24.03.2019 08:00:00 7,2 4,4 0 0 N 1022,9 10
24.03.2019 07:00:00 6,0 3,0 0 0 N - 10
24.03.2019 06:00:00 7,0 4,0 0 0 N - 10
24.03.2019 05:00:00 9,0 4,5 11 6 E 1022,0 10
24.03.2019 04:00:00 10,0 7,0 18 10 ESE - 10
24.03.2019 03:00:00 6,0 3,0 0 0 N - 10
24.03.2019 02:00:00 4,2 1,4 0 0 N 1021,4 10
24.03.2019 01:00:00 7,0 4,0 0 0 N - 10
24.03.2019 00:00:00 8,0 3,0 0 0 N - 10
23.03.2019 23:00:00 9,8 3,0 0 0 N 1020,9 10
23.03.2019 22:00:00 9,0 4,0 0 0 N - 10
23.03.2019 21:00:00 8,0 4,0 0 0 N - 10
23.03.2019 20:00:00 11,0 4,4 8 4 E 1020,3 10
23.03.2019 19:00:00 13,0 6,0 0 0 N - 10
23.03.2019 18:00:00 17,0 5,0 8 4 SE - 10
23.03.2019 17:00:00 18,0 4,6 9 5 SE 1020,1 10
23.03.2019 16:00:00 19,0 4,0 13 7 ESE - 10
23.03.2019 15:00:00 19,0 5,0 11 6 E - 10
23.03.2019 14:00:00 18,8 6,7 0 0 N 1021,8 10
23.03.2019 13:00:00 18,0 6,0 0 0 N - 10
23.03.2019 12:00:00 17,0 6,0 0 0 N - 10
23.03.2019 11:00:00 15,2 6,8 0 0 N 1024,0 10
23.03.2019 10:00:00 13,0 6,0 0 0 N - 10
23.03.2019 09:00:00 11,0 6,0 0 0 N - 8
23.03.2019 08:00:00 6,0 4,6 0 0 N 1025,0 8
23.03.2019 07:00:00 3,0 2,0 0 0 N - 8
23.03.2019 06:00:00 4,0 3,0 0 0 N - 10
23.03.2019 05:00:00 6,0 5,1 0 0 N 1024,5 10
23.03.2019 04:00:00 7,0 5,0 0 0 N - 10
23.03.2019 03:00:00 7,0 5,0 0 0 N - 10
23.03.2019 02:00:00 7,8 5,4 0 0 N 1024,9 10
23.03.2019 01:00:00 7,0 6,0 0 0 N - 10
23.03.2019 00:00:00 6,0 4,0 0 0 N - 10
22.03.2019 23:00:00 7,2 4,4 0 0 N 1025,7 10
22.03.2019 22:00:00 6,0 4,0 8 4 E - 10
22.03.2019 21:00:00 8,0 5,0 9 5 E - 10
22.03.2019 20:00:00 10,0 5,1 13 7 E 1025,4 10
22.03.2019 19:00:00 12,0 6,0 9 5 E - 10
22.03.2019 18:00:00 17,0 5,0 0 0 N - 10
22.03.2019 17:00:00 16,2 5,3 0 0 N 1025,2 10
22.03.2019 16:00:00 16,0 6,0 11 6 E - 10
22.03.2019 15:00:00 16,0 5,0 11 6 ESE - 10
22.03.2019 14:00:00 15,0 5,6 15 8 E 1027,3 10
22.03.2019 13:00:00 15,0 7,0 9 5 E - 10
22.03.2019 12:00:00 14,0 7,0 0 0 N - 10
22.03.2019 11:00:00 13,2 7,0 0 0 N 1029,5 10
22.03.2019 10:00:00 12,0 7,0 0 0 N - 10
22.03.2019 09:00:00 12,0 6,0 0 0 N - 10
22.03.2019 08:00:00 8,8 5,7 0 0 N 1030,1 8
22.03.2019 07:00:00 7,0 5,0 0 0 N - 8
22.03.2019 06:00:00 6,0 4,0 0 0 N - 10
22.03.2019 05:00:00 5,6 3,6 0 0 N 1029,6 10
22.03.2019 04:00:00 6,0 4,0 0 0 N - 10
22.03.2019 03:00:00 4,0 3,0 0 0 N - 10
22.03.2019 02:00:00 4,8 2,8 0 0 N 1029,9 10
22.03.2019 01:00:00 7,0 3,0 0 0 N - 10
22.03.2019 00:00:00 7,0 4,0 0 0 N - 10
21.03.2019 23:00:00 7,4 3,6 0 0 N 1029,5 10
21.03.2019 22:00:00 8,0 4,0 0 0 N - 10
21.03.2019 21:00:00 10,0 4,0 0 0 N - 10
21.03.2019 20:00:00 11,4 4,2 11 6 E 1028,2 10
21.03.2019 19:00:00 14,0 4,0 15 8 ESE - 10
21.03.2019 18:00:00 15,0 4,0 21 11 ESE - 10
21.03.2019 17:00:00 16,2 4,8 24 13 ESE 1027,3 10
21.03.2019 16:00:00 17,0 5,0 22 12 ESE - 10
21.03.2019 15:00:00 17,0 5,0 28 15 E - 10
21.03.2019 14:00:00 17,0 5,4 28 15 E 1028,3 10
21.03.2019 13:00:00 17,0 4,0 24 13 E - 10
21.03.2019 12:00:00 17,0 4,0 18 10 ESE - 10
21.03.2019 11:00:00 16,0 4,9 21 11 E 1029,7 10
21.03.2019 10:00:00 15,0 3,0 0 0 N - 10
21.03.2019 09:00:00 13,0 5,0 8 4 E - 10
21.03.2019 08:00:00 11,0 4,9 0 0 N 1028,9 10
21.03.2019 07:00:00 9,0 4,0 0 0 N - 10
21.03.2019 06:00:00 11,0 5,0 11 6 E - 10
21.03.2019 05:00:00 11,0 6,8 15 8 E 1027,0 10
21.03.2019 04:00:00 12,0 8,0 22 12 ESE - 10
21.03.2019 03:00:00 13,0 10,0 15 8 E - 10
21.03.2019 02:00:00 13,6 9,8 22 12 E 1026,5 10
21.03.2019 01:00:00 11,0 9,0 11 6 E - 10
21.03.2019 00:00:00 11,0 9,0 0 0 N - 10
20.03.2019 23:00:00 12,4 9,0 0 0 N 1025,2 10
20.03.2019 22:00:00 13,0 9,0 0 0 N - 10
20.03.2019 21:00:00 12,0 8,0 8 4 ESE - 10

tt = temperature
td = dewpoint
ff = wind speed
dd = wind direction
ppp = reduced air pressure
vv = visibility

Next stations